Regional Weather Roundup
Issued by NWS Upton, NY

Home | Current Version | Previous Version | Text Only | Print | Product List | Glossary On
Versions: 1 2 3 4 5 6 7 8 9 10 11 12 13 14 15 16 17 18 19 20 21 22 23 24 25 26 27 28 29 30 31 32 33 34 35 36 37 38 39 40 41 42 43 44 45 46 47 48 49 50
000
ASUS41 KOKX 030818
RWROKX

REGIONAL WEATHER ROUNDUP
NATIONAL WEATHER SERVICE NEW YORK NY
400 AM EDT FRI JUL 03 2015

NOTE: "FAIR" INDICATES FEW OR NO CLOUDS BELOW 12,000 FEET WITH NO
SIGNIFICANT WEATHER AND/OR OBSTRUCTIONS TO VISIBILITY.

NYZ071-072-176-178-NJZ106-104-030900-
NEW YORK CITY METRO AREA


CITY           SKY/WX    TMP DP  RH WIND       PRES   REMARKS
CENTRAL PARK   CLEAR     70  52  52 VRB6      29.93S
LAGUARDIA APRT CLEAR     68  54  60 N5        29.90R
KENNEDY INTL   PTCLDY    68  61  78 N5        29.90S
NEWARK/LIBERTY PTCLDY    66  56  70 N8        29.90S
BRNX BOT. GARD   N/A     66  52  59 N7        29.92S
TETERBORO      CLEAR     65  55  70 N3        29.90S
$$

NYZ177-179-078>081-030900-
LONG ISLAND NEW YORK

CITY           SKY/WX    TMP DP  RH WIND       PRES   REMARKS
FARMINGDALE    CLEAR     65  60  84 N8        29.89F
ISLIP          CLEAR     64  61  90 N6        29.87F
SHIRLEY        CLEAR     64  62  93 N7        29.89S
WESTHAMPTON    CLEAR     63  63 100 N5        29.89F
MONTAUK POINT    N/A     67  63  87 W3        29.88S
$$

NYZ052-065-067-030900-
HUDSON VALLEY

CITY           SKY/WX    TMP DP  RH WIND       PRES   REMARKS
WHITE PLAINS   PTCLDY    64  50  60 N10       29.90S
NEWBURGH       PTCLDY    64  54  68 CALM      29.95
MONTGOMERY     CLEAR     55  54  96 CALM      29.93S
POUGHKEEPSIE   CLEAR     56  54  93 CALM      29.92F
ALBANY         PTCLDY    54  46  74 CALM      29.95S
$$

NJZ001-105-106-008-010-013-015-019>022-104-030900-
NEW JERSEY

CITY           SKY/WX    TMP DP  RH WIND       PRES   REMARKS
NEWARK/LIBERTY PTCLDY    66  56  70 N8        29.90S
TETERBORO      CLEAR     65  55  70 N3        29.90S
CALDWELL       CLEAR     63  57  81 CALM      29.92S
MORRISTOWN     CLEAR     61  57  88 CALM      29.92S FOG
SOMERVILLE     CLEAR     62  58  86 NW5       29.90R
SUSSEX         CLEAR     56  54  93 CALM      29.94S FOG
ANDOVER          N/A     58  57  97 CALM      29.94S
TRENTON        CLEAR     64  62  93 N5        29.91R
MILLVILLE      CLEAR     61  61 100 CALM      29.90S FOG
ATLANTIC CITY  CLEAR     61  60  97 NW3       29.89S FOG
WRIGHTSTOWN    CLEAR     61  61 100 NW3       29.88S FOG
TOMS RIVER     CLEAR     57  55  94 CALM      29.90S
BELMAR         MOCLDY    64  59  82 CALM      29.90R
$$

PAZ047>061-062-071-030900-
EASTERN PENNSYLVANIA

CITY           SKY/WX    TMP DP  RH WIND       PRES   REMARKS
PHILADELPHIA   PTCLDY    69  63  81 NW3       29.91S
ALLENTOWN      CLEAR     61  56  83 NW3       29.94R
SCRANTON       CLEAR     58  53  84 E3        29.97S
$$

CTZ002-004>006-009-010-012-RIZ004-006-007-MAZ004-011-015-030900-
SOUTHERN NEW ENGLAND
 IN CT

CITY           SKY/WX    TMP DP  RH WIND       PRES   REMARKS
BRADLEY INTL   PTCLDY    59  51  75 N3        29.89S
HARTFORD       CLEAR     62  52  69 VRB5      29.90R
DANBURY        CLEAR     58  49  72 VRB3      29.93S
WTRBRY/OXFORD  CLEAR     57  46  67 N3        29.92S
BRIDGEPORT     PTCLDY    67  53  61 N7        29.89S
MERIDEN        MOCLDY    64  53  67 W3        29.90S
NEW HAVEN      CLEAR     65  54  67 NW7       29.89S
CHESTER        FAIR      63  57  82 N6        29.90S
GROTON         CLEAR     64  58  80 N8        29.86F
WILLIMANTIC    CLEAR     60  57  89 CALM      29.90R

 IN RI

CITY           SKY/WX    TMP DP  RH WIND       PRES   REMARKS
PROVIDENCE     CLEAR     66  54  65 N9        29.87S
BLOCK ISLAND   PTCLDY    63  61  94 W6        29.87R
WESTERLY       CLEAR     63  60  90 CALM      29.88R

 IN MA

CITY           SKY/WX    TMP DP  RH WIND       PRES   REMARKS
BOSTON         PTCLDY    64  54  69 NW12      29.89R
WORCESTER      CLEAR     63  46  54 N8        29.91S
WESTFIELD      CLEAR     54  51  90 CALM      29.91S
PROVINCETOWN   CLOUDY    63   7  11 N8        29.86R
NANTUCKET      CLOUDY    64  61  90 CALM      29.85R
$$

ANZ330-335-338-340-345-350-353-355-030900-
COASTAL MARINE OBSERVATIONS


STATION/POSITION TIME  SKY/WX   TEMP    WIND        PRES    VSBY  WAVE
                                AIR SEA DIR/SP/G                  HT/PER
                 (UTC)          (F)     (DEG/KT/KT) (MB)    (MI)  (FT/S)
NY HARB ENTRANCE 0750            69 69  310/  6/  8 1011.6          2/ 8
4S FIRE IS       0703               69                N/A           2/ 8
20S FIRE ISLAND  0750            68 67  320/  6/  8 1011.4          3/ 8
GREAT SOUTH BAY  0700            68 75  350/ 10/ 12   N/A
23SW MTP         0750            66 66  290/ 10/ 12 1011.0          3/ 8
HUDSON CANYON    NOT AVBL
KINGS POINT      0700            67 66   30/  5/  7 1011.8
CENTRAL LI SOUND NOT AVBL
EASTERN LI SOUND 0700            65 63  310/  6/  6   N/A
ROBBINS REEF     0700            69     360/ 11/ 13 1011.1
$$


>>>>>>>>>>>>>>>>>>>>>>>>>>>> KEY <<<<<<<<<<<<<<<<<<<<<<<<<<<
>                                                          <
>     SKY/WX - SKY CONDITION/PRESENT WEATHER               <
>     TMP    - TEMPERATURE IN FAHRENHEIT                   <
>     DP     - DEWPOINT IN FAHRENHEIT                      <
>     RH     - RELATIVE HUMIDITY IN PERCENT                <
>     WIND   - DIRECTION AND SPEED IN MPH                  <
>     PRES   - MEAN SEA LEVEL PRESSURE IN INCHES OF HG     <
>     WCI    - WIND CHILL INDEX                            <
>     VSB    - VISIBILITY IN MILES                         <
>     HX     - HEAT INDEX                                  <
>     TC     - TEMPERATURE IN CELSIUS                      <
>     VRB    - VARIABLE WIND DIRECTION                     <
>                                                          <
>>>>>>>>>>>>>>>>>>>>>>>>>>>> KEY <<<<<<<<<<<<<<<<<<<<<<<<<<<




USA.gov is the U.S. government's official web portal to all federal, state and local government web resources and services.